Regional Weather Roundup
Issued by NWS

Home | Current Version | Previous Version | Graphics & Text | Print | Product List | Glossary Off
Versions: 1 2 3 4 5 6 7 8 9 10 11 12 13 14 15 16 17 18 19 20 21 22 23 24 25 26 27 28 29 30 31 32 33 34 35 36 37 38 39 40 41 42 43 44 45 46 47 48 49 50

000
ASUS43 KFSD 152002
RWRSD

WEATHER ROUNDUP FOR SOUTH DAKOTA
NATIONAL WEATHER SERVICE SIOUX FALLS SD
300 PM CDT TUE APR 15 2014

NOTE: "FAIR" INDICATES FEW OR NO CLOUDS BELOW 12,000 FEET WITH NO
SIGNIFICANT WEATHER AND/OR OBSTRUCTIONS TO VISIBILITY.


SDZ001>005-009-010-012>017-152100-
NORTHWEST AND NORTH CENTRAL SOUTH DAKOTA

CITY           SKY/WX    TMP DP  RH WIND       PRES   REMARKS
BUFFALO          N/A     64  16  15 W21G30    29.51F
MOBRIDGE       MOSUNNY   48  19  31 SE25G31   29.71F
$$

SDZ012>016-024>037-041>051-057-063-072>074-152100-
SOUTHWEST AND SOUTH CENTRAL SOUTH DAKOTA

CITY           SKY/WX    TMP DP  RH WIND       PRES   REMARKS
RAPID CTY ARPT MOSUNNY   64  19  17 CALM      29.62F
PIERRE         SUNNY     58  22  24 SE18G30   29.70F
CUSTER         SUNNY     54  16  22 W13G20    29.69F
PHILIP         SUNNY     63  24  22 S8G21     29.64F
PINE RIDGE     CLOUDY    61  26  26 W9        29.69F
WINNER         FAIR      60  22  23 S18G25    29.72F
$$

SDZ004>011-016>023-039-040-152100-
NORTHEAST SOUTH DAKOTA

CITY           SKY/WX    TMP DP  RH WIND       PRES   REMARKS
ABERDEEN       CLOUDY    43  16  33 SE17      29.89F
WATERTOWN      PTSUNNY   39  13  34 S16G23    29.91F
SISSETON         N/A     34  14  43 SE14G23   29.97F WCI  25
$$

SDZ017-020-022-023-036>040-048>070-152100-
SOUTHEAST SOUTH DAKOTA

CITY           SKY/WX    TMP DP  RH WIND       PRES   REMARKS
SIOUX FALLS    PTSUNNY   44  16  32 S15G28    29.97F
HURON          PTSUNNY   46  16  30 SE23G33   29.87F
CHAMBERLAIN      N/A     56  22  26 S25G33    29.76F
MITCHELL       MOSUNNY   49  20  31 SE25G35   29.88F
YANKTON        PTSUNNY   46  19  34 S21G31    29.96F
$$

ABBREVIATIONS USED IN REMARKS
   TC - TEMPERATURE IN CELSIUS
  WCI - WIND CHILL INDEX
   HX - HEAT INDEX
  VSB - VISIBILITY




USA.gov is the U.S. government's official web portal to all federal, state and local government web resources and services.